Location: Arroyo Grande
(40.2671°N, 4.2512°W)
Time: 23:12:04
(UTC+00:00)

Cosmos 2278 Rocket - Pass Details

Date: 01 October 2023
Orbit: 842 x 844 km, 71.0° (Epoch: 03 December)

Event Time Altitude Azimuth Distance (km) Brightness Sun altitude
Rises 19:13:28 0° 340° (NNW) 3,410 5.8 -14.9°
Reaches altitude 10° 19:15:58 10° 344° (NNW) 2,471 4.9 -15.3°
Maximum altitude 19:21:34 58° 63° (ENE) 980 2.3 -16.4°
Enters shadow 19:25:22 20° 137° (SE) 1,833 3.5 -17.1°
